Location: Newark
(54.9867°N, 38.6060°E)
Time: 21:09:25
(UTC+00:00)

N. Korean satellite - Visible Passes

Search period start: 20 October 2019 00:00
Search period end: 30 October 2019 00:00
Orbit: 455 x 508 km, 97.2° (Epoch: 20 October)

Date Brightness Start Highest point End Pass type
(mag) Time Alt. Az. Time Alt. Az. Time Alt. Az.
20 Oct 7.9 03:11:56 10° NNE 03:15:25 46° E 03:18:56 10° S visible
20 Oct 9.9 15:28:57 10° SW 15:31:14 17° W 15:33:34 10° NW visible
21 Oct 9.2 02:46:53 10° NE 02:49:58 26° E 02:53:05 10° SSE visible
21 Oct 8.9 15:02:41 10° SSW 15:05:43 29° W 15:08:49 10° NNW visible
22 Oct 10.1 02:22:14 10° NE 02:24:27 15° E 02:26:41 10° SE visible
23 Oct 7.0 03:29:18 10° NNE 03:32:56 71° ESE 03:36:36 10° S visible
23 Oct 10.3 15:47:42 10° WSW 15:48:53 11° W 15:50:06 10° WNW visible
24 Oct 8.3 03:04:07 10° NNE 03:07:33 38° E 03:11:00 10° SSE visible
24 Oct 9.6 15:20:42 10° SW 15:23:19 20° W 15:25:58 10° NW visible
25 Oct 9.4 02:39:09 10° NE 02:42:05 22° E 02:45:01 10° SE visible
25 Oct 8.5 14:54:36 10° SSW 14:57:48 35° W 15:01:04 10° NNW visible
26 Oct 10.2 02:14:41 10° ENE 02:16:32 13° E 02:18:22 10° ESE visible
27 Oct 7.3 03:21:26 10° NNE 03:25:03 59° E 03:28:43 10° S visible
27 Oct 10.1 15:39:03 10° WSW 15:40:54 14° W 15:42:47 10° NW visible
28 Oct 8.7 02:56:17 10° NNE 02:59:38 33° E 03:03:00 10° SSE visible
28 Oct 9.3 15:12:28 10° SSW 15:15:20 24° W 15:18:15 10° NW visible
29 Oct 9.7 02:31:24 10° NE 02:34:08 19° E 02:36:52 10° SE visible
29 Oct 8.0 14:46:31 10° S 14:49:50 42° W 14:53:15 10° NNW visible
